TimeEST,TemperatureF,Dew PointF,Humidity,Sea Level PressureIn,VisibilityMPH,Wind Direction,Wind SpeedMPH,Gust SpeedMPH,PrecipitationIn,Events,Conditions,WindDirDegrees,DateUTC
12:53 AM,23.0,19.0,85,30.71,10.0,Calm,Calm,-,N/A,,Clear,0,2012-11-18 05:53:00
1:53 AM,21.9,18.0,85,30.73,10.0,Calm,Calm,-,N/A,,Clear,0,2012-11-18 06:53:00
2:53 AM,21.9,18.0,85,30.72,10.0,Calm,Calm,-,N/A,,Clear,0,2012-11-18 07:53:00
3:53 AM,21.0,17.1,85,30.72,10.0,Calm,Calm,-,N/A,,Clear,0,2012-11-18 08:53:00
4:53 AM,21.0,16.0,81,30.72,10.0,Calm,Calm,-,N/A,,Clear,0,2012-11-18 09:53:00
5:53 AM,19.9,16.0,85,30.73,10.0,Calm,Calm,-,N/A,,Clear,0,2012-11-18 10:53:00
6:53 AM,19.9,15.1,81,30.75,10.0,Calm,Calm,-,N/A,,Clear,0,2012-11-18 11:53:00
7:53 AM,25.0,21.0,85,30.77,10.0,Calm,Calm,-,N/A,,Clear,0,2012-11-18 12:53:00
8:53 AM,34.0,21.9,61,30.78,10.0,Calm,Calm,-,N/A,,Clear,0,2012-11-18 13:53:00
9:53 AM,37.9,21.0,51,30.77,10.0,Calm,Calm,-,N/A,,Clear,0,2012-11-18 14:53:00
10:53 AM,39.9,12.0,32,30.76,10.0,East,5.8,-,N/A,,Clear,80,2012-11-18 15:53:00
11:53 AM,43.0,12.9,30,30.73,10.0,NE,4.6,-,N/A,,Clear,50,2012-11-18 16:53:00
12:53 PM,44.1,14.0,30,30.71,10.0,Variable,3.5,-,N/A,,Clear,0,2012-11-18 17:53:00
1:53 PM,44.1,14.0,30,30.70,10.0,East,4.6,-,N/A,,Clear,90,2012-11-18 18:53:00
2:53 PM,44.1,14.0,30,30.70,10.0,Variable,4.6,-,N/A,,Clear,0,2012-11-18 19:53:00
3:53 PM,37.9,17.1,43,30.70,10.0,Calm,Calm,-,N/A,,Clear,0,2012-11-18 20:53:00
4:53 PM,30.9,18.0,59,30.70,10.0,Calm,Calm,-,N/A,,Clear,0,2012-11-18 21:53:00
5:53 PM,28.0,19.0,69,30.71,10.0,Calm,Calm,-,N/A,,Clear,0,2012-11-18 22:53:00
6:53 PM,27.0,19.0,72,30.71,10.0,Calm,Calm,-,N/A,,Clear,0,2012-11-18 23:53:00
7:53 PM,26.1,19.0,75,30.71,10.0,Calm,Calm,-,N/A,,Clear,0,2012-11-19 00:53:00
8:53 PM,25.0,18.0,75,30.70,10.0,Calm,Calm,-,N/A,,Clear,0,2012-11-19 01:53:00
9:53 PM,24.1,18.0,77,30.69,10.0,Calm,Calm,-,N/A,,Clear,0,2012-11-19 02:53:00
10:53 PM,23.0,18.0,81,30.69,10.0,Calm,Calm,-,N/A,,Clear,0,2012-11-19 03:53:00
11:53 PM,21.9,18.0,85,30.68,10.0,Calm,Calm,-,N/A,,Clear,0,2012-11-19 04:53:00